Location: Gerlach
(40.6516°N, 119.3568°W)
Time: 15:58:24
(UTC-07:00)

ITAMSAT 1 - Pass Details

Date: 11 August 2024
Orbit: 782 x 795 km, 98.8° (Epoch: 14 September)

Event Time Altitude Azimuth Distance (km) Brightness Sun altitude
Exits shadow 23:02:49 - 234° (SW) 2,535 10.2 -28.0°
Reaches altitude 10° 23:03:45 10° 243° (WSW) 2,356 10.2 -28.1°
Maximum altitude 23:06:06 13° 270° (W) 2,152 10.2 -28.3°
Drops below altitude 10° 23:08:28 10° 297° (WNW) 2,366 10.8 -28.6°
Sets 23:12:13 0° 325° (NW) 3,303 12.1 -28.9°
